Regional Weather Roundup
Issued by NWS

Home | Current Version | Previous Version | Text Only | Print | Product List | Glossary Off
Versions: 1 2 3 4 5 6 7 8 9 10 11 12 13 14 15 16 17 18 19 20 21 22 23 24 25 26 27 28 29 30 31 32 33 34 35 36 37 38 39 40 41 42 43 44 45 46 47 48 49 50

000
ASUS43 KIND 261859
RWRIN

WEATHER ROUNDUP FOR INDIANA
NATIONAL WEATHER SERVICE INDIANAPOLIS IN
300 PM EDT THU MAR 26 2015

NOTE: "FAIR" INDICATES FEW OR NO CLOUDS BELOW 12,000 FEET WITH NO
SIGNIFICANT WEATHER AND/OR OBSTRUCTIONS TO VISIBILITY.

* - STATION DOES NOT REPORT WEATHER SUCH AS PRECIPITATION OR FOG.

+ - STATION NOT QUALITY CONTROLLED BY THE NATIONAL WEATHER SERVICE.
    USE DATA WITH CAUTION...ESPECIALLY DEWPOINT AND RELATIVE
    HUMIDITY OBSERVATIONS.

INZ001>003-010>013-019-020-262000-
NORTHWEST INDIANA

CITY           SKY/WX    TMP DP  RH WIND       PRES   REMARKS
GARY /AIRPORT/ PTSUNNY   43  19  39 NE9       29.96F

$$

LMZ046-743>745-262000-
SOUTHERN LAKE MICHIGAN

STATION/POSITION TIME  TEMP WIND        PRES
                       AIR  DIR/SP/G
                 (UTC) (F)  (DEG/KT/KT) (MB)
BURNS HARBOR     1800   36   30/  4/  5 1015.2F
MICHIGAN CITY    1800   37  280/  6/  6   N/A

$$

INZ004-005-014>016-021>024-262000-
NORTH CENTRAL INDIANA

CITY           SKY/WX    TMP DP  RH WIND       PRES   REMARKS
ELKHART        PTSUNNY   41  21  45 NW15      29.92F
GOSHEN         PTSUNNY   43  26  51 NW13      29.90F
SOUTH BEND     CLOUDY    40  24  53 NW15G24   29.94S

$$

INZ006>009-017-018-025>027-262000-
NORTHEAST INDIANA

CITY           SKY/WX    TMP DP  RH WIND       PRES   REMARKS
ANGOLA *+      PTSUNNY   43  28  56 N10       29.87F
FORT WAYNE     CLOUDY    42  31  64 NW13      29.89F

$$

INZ028-029-035-036-043>045-051>053-262000-
WEST CENTRAL INDIANA

CITY           SKY/WX    TMP DP  RH WIND       PRES   REMARKS
CRAWFORDSVL +  PTSUNNY   40  29  65 MISG      29.94S
GREENCASTLE +  PTSUNNY   39  30  70 NW6       29.95S
LAFAYETTE      PTSUNNY   44  30  57 NW13G24   29.93F
TERRE HAUTE    PTSUNNY   43  34  70 NW12      29.98R

$$

INZ030>032-037>040-046>048-054>057-064-065-262000-
CENTRAL INDIANA

CITY           SKY/WX    TMP DP  RH WIND       PRES   REMARKS
GREENWOOD *+   CLOUDY    41  32  70 NW8G17    29.92F
INDIANAPOLIS   CLOUDY    43  33  68 NW15      29.91F
-EAGLE CREEK   CLOUDY    42  32  67 NW12      29.91F
KOKOMO *+        N/A     43  32  65 NW16      29.91F
MT COMFORT *+  CLOUDY    41  28  60 NW12      29.92S
SHELBYVILLE    CLOUDY    43  35  73 NW14      29.90F

$$

INZ033-034-041-042-049-050-058-059-262000-
EAST CENTRAL INDIANA

CITY           SKY/WX    TMP DP  RH WIND       PRES   REMARKS
MUNCIE         CLOUDY    41  34  76 NW12      29.89F

$$

INZ060-061-067>069-081>083-085>088-262000-
SOUTHWEST INDIANA

CITY           SKY/WX    TMP DP  RH WIND       PRES   REMARKS
EVANSVILLE     CLOUDY    43  36  76 NW14      30.01R
HUNTINGBURG *+ CLOUDY    41  36  81 N16       29.98R

$$

INZ062-063-066-070>080-084-089>092-262000-
SOUTH CENTRAL AND SOUTHEAST INDIANA

CITY           SKY/WX    TMP DP  RH WIND       PRES   REMARKS
BLOOMINGTON    CLOUDY    41  34  76 NW9       29.95R
SEYMOUR +      CLOUDY    45  41  87 NW13      29.93R

$$




USA.gov is the U.S. government's official web portal to all federal, state and local government web resources and services.